GFSMW_prec_radar_090.txt.gz
Reflectivity
-20 -20 -20 36 -20 -20 -20 -20 -20 -20 -20 -20 -20 1 28 11 20 24 34 27 12 -5 -5 -20 -20 -20 -7 7 -7 -20 -20 -20 -20 -17 -9 -20 -20 -20 -20 -12 -20 2 -9
-20 -20 -20 -20 -20 -20 -20 12 -20 -20 -20 5 10 -1 23 15 23 24 31 30 29 22 13 -6 7 8 10 -12 -19 -14 -11 -20 -20 -4 -20 -19 -17 -20 -19 -15 -18 -20 -10
-20 -20 -20 -20 -19 -10 -11 3 -4 8 -20 -20 -17 6 14 26 32 29 29 26 25 20 27 19 16 1 -17 -20 -1 -20 -7 9 2 -12 -20 2 -12 1 1 9 -19 -20 -20
-20 -20 -20 -20 -0 -3 4 -19 -20 25 -20 -6 8 24 20 24 23 34 37 30 31 24 23 33 19 -7 -13 13 -4 -2 29 22 27 25 21 15 16 17 5 -1 -10 -20 -11
-20 -20 -10 16 -9 27 -20 5 13 2 18 34 33 41 32 23 22 30 34 38 36 33 33 32 30 27 24 26 24 28 26 24 6 13 12 22 -14 -20 -17 4 22 0 -11
3 18 -8 12 10 12 21 6 13 5 28 38 36 37 34 32 36 35 34 37 34 33 34 35 34 32 31 32 28 32 30 24 25 28 28 14 4 -20 -4 -11 -18 6 24
8 17 24 33 29 25 9 23 6 2 35 38 34 29 26 36 36 37 35 33 35 34 31 33 31 27 30 32 31 32 27 32 34 4 -13 13 2 -5 -2 -7 -20 -20 -20
15 22 38 34 35 26 28 16 23 35 34 32 31 35 31 33 35 36 35 31 31 31 33 30 29 29 30 30 29 20 18 22 1 -16 8 11 12 20 17 16 -2 5 -7
37 35 27 30 34 33 30 30 31 33 30 30 33 26 16 17 20 27 24 24 29 29 31 25 27 24 -5 4 23 8 -15 22 22 25 -3 -20 17 38 23 24 13 26 38
36 36 33 33 31 24 22 5 11 19 19 19 23 17 15 -3 -6 14 26 24 28 29 31 31 21 9 30 34 24 21 21 17 9 12 7 -3 12 9 31 9 -6 10 12
31 31 28 29 24 -10 -18 -19 -18 -9 2 -4 7 13 5 -8 -4 12 11 16 19 14 6 -11 -10 -3 -7 -2 8 11 14 16 5 11 10 -9 -16 20 39 20 25 20 8
26 27 17 11 -4 -20 -20 -20 -20 -20 -20 -20 -19 -3 -3 4 7 3 -19 4 4 5 7 9 4 -11 8 -20 -12 4 -7 7 16 6 16 16 -20 -2 15 31 6 10 -11
-13 -12 -20 -16 -20 -20 -20 -20 -20 -20 -20 -20 -20 -20 -20 -20 -20 -20 -13 -3 -6 -9 -12 -20 -20 -20 -20 -20 -20 1 0 -12 -8 8 -20 18 -9 8 15 18 9 -20 -20
-17 -20 -20 -20 -20 -20 -20 -20 -20 -20 -20 -20 -20 -20 -20 -20 -20 -20 -20 -17 -17 -20 -6 -10 -20 -20 -20 -20 -20 -18 6 -11 -8 -17 -1 -5 -4 -3 16 36 -16 -20 -20
-20 -20 -20 -20 -20 -20 -20 -20 -20 -20 -20 -20 -20 -20 -20 -20 -20 -20 -20 -20 -20 -20 -20 -20 -20 -20 -20 -20 -20 -20 -20 -0 11 -17 -20 -5 10 20 21 29 -20 -20 -13
-20 -20 -20 -20 -20 -20 -20 -20 -20 -20 -20 -20 -20 -20 -20 -20 -20 -20 -20 -20 -20 -20 -20 -20 -20 -20 -20 -20 -20 -20 -20 -20 -20 -20 -20 -19 18 11 17 -15 -20 -20 -18
-20 -20 -20 -20 -20 -20 -20 -20 -20 -20 -20 -20 -20 -20 -20 -20 -20 -20 -20 -20 -20 -20 -20 -20 -20 -20 -20 -20 -20 -20 -20 -20 -20 -20 -5 -20 -7 5 8 -6 35 20 26
-20 -20 -20 -20 -20 -20 -20 -20 -20 -20 -20 -20 -20 -20 -20 -20 -20 -20 -20 -20 -20 -20 -20 -20 -20 -20 -20 -20 -20 -11 -20 -20 -20 -20 -20 -20 -20 -20 -20 -20 -20 -7 23
-20 -20 -20 -20 -20 -20 -20 -20 -20 -20 -20 -20 -20 -20 -20 -20 -20 -20 -20 -20 -20 -20 -20 -20 -20 -20 -20 -20 -20 -20 -20 -20 -20 -20 -20 -20 -20 -20 -17 -12 -20 -19 0
-20 -20 -20 -20 -20 -20 -20 -20 -20 -20 -20 -20 -20 -20 -20 -20 -20 -20 -20 -20 -20 -20 -20 -20 -20 -20 -20 -20 -20 3 -20 -20 -20 -20 -20 -19 -18 -20 -20 -20 -20 -20 -20
-20 -20 -20 -20 -20 -20 -20 -20 -20 -20 -20 -20 -20 -20 -20 -20 -20 -20 -20 -20 -20 -20 -20 -20 -20 -20 -20 -20 -18 2 4 8 -12 -20 -20 -20 12 10 8 -4 -20 -20 -20
-20 -20 -20 -20 -20 -20 -20 -20 -20 -20 -20 -20 -20 -20 -20 -20 -20 -20 -20 -20 -20 -20 -20 -20 -20 -20 -20 -20 -20 -20 -19 4 5 -11 -20 -10 4 9 10 9 9 10 -1
-20 -20 -20 -20 -20 -20 -20 -20 -20 -20 -20 -20 -20 -20 -20 -20 -20 -20 -20 -20 -20 -20 -20 -20 -20 -20 -20 -20 -20 -20 -20 -20 -18 -3 14 12 13 12 12 14 18 11 6
-20 -20 -20 -20 -20 -20 -20 -20 -20 -20 -20 -20 -20 -20 -20 -20 -20 -20 -20 -20 -20 -20 -20 -20 -20 -20 -20 -20 -20 -20 -20 -20 -6 -20 -6 -3 12 16 21 21 16 20 16
-20 -20 -20 -20 -20 -20 -20 -20 -20 -20 -20 -20 -20 -20 -20 -20 -20 -20 -20 -20 -20 -20 -20 -20 -20 -1 -20 -20 -20 -20 -20 -20 -10 -1 -10 -14 -19 7 26 24 22 28 20
-20 -20 -20 -20 -20 -20 -20 -20 -20 -20 -20 -20 -20 -20 -20 -20 -20 -20 -20 -20 -20 -20 -20 -20 -14 -20 -13 -1 -18 -20 -20 -8 13 -1 -15 9 -10 -12 11 25 33 25 26

GFSMW_prec_radar_093.txt.gz
Reflectivity
-20 -20 -20 -20 -20 -20 -20 -20 -20 -20 -20 -20 -20 -20 -20 -20 -20 -20 6 21 26 13 21 21 27 35 22 25 6 -10 -20 -20 -20 -20 -20 -20 -20 -20 -20 -20 -20 -20 -20
-20 -20 -13 -8 -20 -20 -20 -20 -20 -20 -20 -20 -20 -20 -20 -20 -20 21 15 24 19 17 27 20 24 9 34 15 15 9 -5 2 -16 -16 -3 -18 -18 -20 -9 -16 -6 -2 -20
-20 -6 -9 -20 -20 -20 -20 -20 -20 -20 -20 -20 -20 -20 -19 9 -11 25 25 0 24 29 34 27 12 25 -11 -11 19 16 6 -20 -20 -19 -19 -19 -20 -5 -14 -13 -5 -16 8
-20 -12 14 -18 -20 -20 -20 -20 -14 -5 -20 -20 6 -7 -5 -0 -20 1 30 26 20 27 33 34 27 30 24 10 10 -10 -17 24 4 -13 -20 -20 -20 14 -4 2 9 11 -12
-12 -7 11 8 -20 -20 -3 -14 1 10 -8 -19 9 -20 -8 -16 4 -18 42 38 28 28 30 30 30 31 30 15 28 18 24 14 3 26 -6 23 -20 -8 -4 -19 -2 -0 -20
-20 -19 5 -20 -19 10 -20 -20 -12 16 13 16 26 22 24 32 17 23 39 31 29 32 32 28 27 26 20 22 28 31 26 32 27 22 20 24 3 13 15 19 9 18 -15
-18 6 -2 1 -13 3 9 16 14 -8 7 16 32 28 30 26 39 38 38 37 36 35 34 33 30 26 28 19 28 8 18 10 19 23 23 22 20 22 15 19 -17 -20 -20
-0 18 21 34 33 29 35 29 27 26 23 0 -11 7 26 26 32 29 35 33 32 37 37 35 33 33 36 31 33 12 33 32 33 14 8 21 27 32 27 19 18 20 -5
25 23 32 35 36 35 33 30 22 26 20 -3 22 26 35 17 23 31 34 33 36 35 32 30 32 34 33 30 31 30 29 32 32 30 29 24 25 17 21 -1 3 33 23
28 30 35 35 34 33 28 24 26 26 25 16 14 26 23 -20 18 27 27 29 32 27 24 29 30 30 32 31 14 16 26 33 26 24 26 28 25 24 20 9 29 23 9
33 35 32 32 22 9 1 -19 -12 7 0 10 1 5 12 -1 -18 1 12 12 10 9 9 15 25 28 25 28 32 32 35 27 27 27 32 28 30 30 22 5 23 28 5
36 32 29 28 -11 -20 -20 -20 -20 -20 -14 -16 -15 -2 3 -3 -3 2 -5 -20 -19 -6 -16 -5 8 11 10 4 7 12 11 12 4 0 -7 4 -5 4 7 15 12 17 26
-19 -20 -20 -20 -20 -20 -20 -20 -20 -20 -20 -20 -20 -20 -20 -20 -20 -5 -17 -6 2 2 6 7 9 6 9 12 8 10 12 11 -6 4 -3 -9 -19 13 6 16 -17 23 20
-20 -20 -20 -20 -20 -20 -20 -20 -20 -20 -20 -20 -20 -20 -20 -20 -20 -20 -20 -20 -20 -20 -20 -17 -15 -19 -20 -18 -20 -20 -19 -5 -6 -1 -9 -8 9 1 -9 9 -7 9 32
-20 -20 -20 -20 -20 -20 -20 -20 -20 -20 -20 -20 -20 -20 -20 -20 -20 -20 -20 -20 -20 -20 -20 -20 -20 -20 -20 -20 -20 -20 -20 -20 -20 -20 -20 -15 13 21 12 -2 3 13 23
-20 -20 -20 -20 -20 -20 -20 -20 -20 -20 -20 -20 -20 -20 -20 -20 -20 -20 -20 -20 -20 -20 -20 -20 -20 -20 -20 -20 -20 -20 -20 -20 -20 -20 -20 -7 12 2 -2 17 22 25 9
-20 -20 -20 -20 -20 -20 -20 -20 -20 -20 -20 -20 -20 -20 -20 -20 -20 -20 -20 -20 -20 -20 -20 -20 -20 -20 -20 -20 -20 -20 -20 -20 -20 -20 -20 -20 -20 -12 -7 -20 2 5 4
-20 -20 -20 -20 -20 -20 -20 -20 -20 -20 -20 -20 -20 -20 -20 -20 -20 -20 -20 -20 -20 -20 -20 -20 -20 -20 -20 -20 -20 -20 -20 -20 -20 -20 -20 -20 -20 -8 -11 -10 -18 24 15
-20 -20 -20 -20 -20 -20 -20 -20 -20 -20 -20 -20 -20 -20 -20 -20 -20 -20 -20 -20 -20 -20 -20 -20 -20 -20 -20 -20 -20 -20 -20 -20 -20 -20 -20 -20 -20 -20 1 -12 -20 -19 -4
-20 -20 -20 -20 -20 -20 -20 -20 -20 -20 -20 -20 -20 -20 -20 -20 -20 -20 -20 -20 -20 -20 -20 -20 -20 -20 -20 -20 -20 -20 -10 5 -20 -20 -20 2 8 12 -14 -20 -20 -20 -20
-20 -20 -20 -20 -20 -20 -20 -20 -20 -20 -20 -20 -20 -20 -20 -20 -20 -20 -20 -20 -20 -20 -20 -20 -20 -20 -20 -20 -20 -20 -20 -18 -2 8 -19 -14 2 14 12 11 -11 -11 -13
-20 -20 -20 -20 -20 -20 -20 -20 -20 -20 -20 -20 -20 -20 -20 -20 -20 -20 -20 -20 -20 -20 -20 -20 -20 -20 -20 -20 -20 -20 -15 -20 -20 -20 -3 -1 9 12 6 13 14 17 20
-20 -20 -20 -20 -20 -20 -20 -20 -20 -20 -20 -20 -20 -20 -20 -20 -20 -20 -20 -20 -20 -20 -20 -20 -20 -20 -20 -20 -20 -20 -20 -20 -20 -20 2 7 3 -8 2 3 17 17 15
-20 -20 -20 -20 -20 -20 -20 -20 -20 -20 -20 -20 -20 -20 -20 -20 -20 -20 -20 -20 -20 -20 -20 -20 -20 -20 -20 -20 -20 -20 -20 -20 -20 -20 -20 -15 -1 1 5 7 11 19 10
-20 -20 -20 -20 -20 -20 -20 -20 -20 -20 -20 -20 -20 -20 -20 -20 -20 -20 -20 -20 -20 -20 -20 -20 -20 -20 -20 -20 -20 -12 -12 -11 -20 -20 -18 -20 -20 -19 -8 -8 5 24 24
-20 -20 -20 -20 -20 -20 -20 -20 -20 -20 -20 -20 -20 -20 -20 -20 -20 -20 -20 -20 -20 -20 -20 -20 -20 -20 -20 -16 -3 -1 -2 5 1 -20 -20 -19 -19 -2 -12 -8 -1 19 24

GFSMW_prec_radar_099.txt.gz
Reflectivity
-20 -20 -20 -20 -20 -20 -20 -20 -20 -20 -20 -20 -20 -20 -20 -20 -20 -20 -20 -20 -20 -20 0 5 6 10 14 7 10 6 -18 21 -20 -10 17 26 20 5 9 4 2 -20 -20
-20 -18 -7 -13 -20 -20 -19 -20 -20 -20 -20 -20 -20 -20 -20 -20 -20 -20 -20 -20 -20 -18 -1 8 -3 -2 8 2 -20 10 -4 19 -20 -19 18 19 20 1 8 6 -20 4 -15
10 2 -8 -8 -20 12 0 -17 -3 -9 -20 -20 -11 -20 -13 -18 -9 -19 -20 -11 -20 -10 1 4 11 7 8 -2 -20 6 -2 9 -18 4 13 -5 -11 16 19 10 15 10 -3
-14 2 18 3 -4 17 -5 20 -20 -0 -20 -20 -15 -12 -18 -16 -11 -14 -20 -20 -20 0 4 9 -0 17 18 24 29 9 18 13 -9 25 12 17 15 18 5 7 -12 -20 -19
11 -5 8 7 -3 -15 26 23 -16 -20 -20 -20 -19 -4 10 -18 -20 -18 2 -10 -17 9 10 4 9 11 13 19 33 30 35 26 25 21 21 28 18 22 16 -8 -2 -0 2
-11 -2 6 -9 -20 12 -20 -20 -20 -20 0 8 -18 11 24 -1 -13 -20 -15 -20 -7 7 -14 10 -4 -6 1 -12 23 27 30 30 28 25 25 28 25 24 26 18 15 28 26
-9 -3 17 12 -6 14 -13 -15 -19 -14 -2 -20 24 24 25 -1 9 -18 2 -12 -20 17 29 26 12 25 21 27 29 33 31 33 30 23 26 28 31 30 16 28 31 27 14
11 15 13 21 21 18 17 13 21 7 -17 1 15 17 33 22 31 -12 -19 -3 3 9 26 31 23 21 24 29 14 21 24 33 30 28 24 30 31 23 26 32 32 32 33
20 28 29 35 29 27 19 31 32 29 29 19 25 20 20 20 19 -12 -4 1 13 15 26 29 20 27 28 29 31 29 29 33 31 30 32 31 30 31 32 30 29 37 39
31 29 32 26 28 34 33 36 35 29 18 19 20 15 28 26 16 7 -18 -20 -15 -3 24 32 26 28 24 23 26 27 26 29 30 30 32 29 28 30 34 32 29 30 29
31 28 24 22 25 31 25 23 19 25 16 14 16 -1 11 17 11 12 9 9 -10 -3 1 21 21 22 23 23 27 29 28 31 25 35 37 32 33 32 33 27 31 32 33
23 24 18 17 18 15 2 4 9 11 14 -20 -20 -19 -16 -15 1 -20 -20 -12 2 -17 -20 -8 -5 -19 -5 -8 -2 19 27 25 26 31 30 23 29 30 26 30 32 36 29
8 4 -15 -20 -20 -20 -20 -20 -20 -20 -20 -20 -20 -20 -20 -20 -20 -20 -20 -20 -20 -20 -20 -20 -20 -20 -20 -20 -20 -20 -17 -9 -11 -15 14 6 15 24 24 18 23 16 21
-20 -20 -20 -20 -20 -20 -20 -20 -20 -20 -20 -20 -20 -20 -20 -20 -20 -20 -20 -20 -20 -20 -20 -20 -20 -20 -20 -20 -20 -20 -20 -20 -20 -20 -20 -20 -20 -6 -2 -4 7 5 0
-20 -20 -20 -20 -20 -20 -20 -20 -20 -20 -20 -20 -20 -20 -20 -20 -20 -20 -20 -20 -20 -20 -20 -20 -20 -20 -20 -20 -20 -20 -20 -20 -20 -20 -20 -20 -20 -20 -17 -4 -7 -20 7
-20 -20 -20 -20 -20 -20 -20 -20 -20 -20 -20 -20 -20 -20 -20 -20 -20 -20 -20 -20 -20 -20 -20 -20 -20 -20 -20 -20 -20 -20 -20 -20 -20 -20 -20 -20 -20 -20 -20 -20 -1 7 -10
-20 -20 -20 -20 -20 -20 -20 -20 -20 -20 -20 -20 -20 -20 -20 -20 -20 -20 -20 -20 -20 -20 -20 -20 -20 -20 -20 -20 -20 -20 -20 -20 -20 -20 -20 -20 -20 -20 -20 -20 -20 -16 -3
-20 -20 -20 -20 -20 -20 -20 -20 -20 -20 -20 -20 -20 -20 -20 -20 -20 -20 -20 -20 -20 -20 -20 -20 -20 -20 -20 -20 -20 -20 -20 -20 -20 -20 -20 -20 -20 -20 -2 -15 -20 -20 -20
-20 -20 -20 -20 -20 -20 -20 -20 -20 -20 -20 -20 -20 -20 -20 -20 -20 -20 -20 -20 -20 -20 -20 -20 -20 -20 -20 -20 -20 -20 -20 -20 -20 -20 -20 -20 -20 -20 -20 -20 -15 -20 -20
-20 -20 -20 -20 -20 -20 -20 -20 -20 -20 -20 -20 -20 -20 -20 -20 -20 -20 -20 -20 -20 -20 -20 -20 -20 -20 -20 -20 -20 -20 -20 -20 -20 -20 -20 -20 -20 -20 -6 2 9 -19 15
-20 -20 -20 -20 -20 -20 -20 -20 -20 -20 -20 -20 -20 -20 -20 -20 -20 -20 -20 -20 -20 -20 -20 -20 -20 -20 -20 -20 -20 -20 -20 -20 -20 -20 -20 -20 -20 -20 -20 -20 -11 -1 3
-20 -20 -20 -20 -20 -20 -20 -20 -20 -20 -20 -20 -20 -20 -20 -20 -20 -20 -20 -20 -20 -20 -20 -20 -20 -20 -20 -20 -20 -20 -20 -20 -20 -20 -20 -20 -20 -20 -20 -20 -7 0 -1
-20 -20 -20 -20 -20 -20 -20 -20 -20 -20 -20 -20 -20 -20 -20 -20 -20 -20 -20 -20 -20 -20 -20 -20 -20 -20 -20 -20 -20 -20 -20 -20 -20 -5 -20 -1 -20 -20 -20 -20 -20 -5 4
-2 -20 -20 -20 -20 -20 -20 -20 -20 -20 -20 -20 -20 -20 -20 -20 -20 -20 -20 -20 -20 -20 -20 -20 -20 -20 -20 -20 -20 -20 -20 -20 -17 -20 -20 -17 -2 -20 -20 -15 -20 3 14
-18 -20 -20 -20 -20 -20 -20 -20 -20 -20 -20 -20 -20 -20 -20 -20 -20 -20 -20 -20 -20 -20 -20 -20 -20 3 2 3 2 3 5 7 -10 1 -12 -8 -20 -20 -20 -20 -20 -6 -14
-20 -20 -20 -20 -20 -20 -20 -20 -20 -20 -20 -20 -20 -20 -20 -20 -20 -20 -20 -20 -20 -20 -20 -1 0 -17 3 2 1 -2 2 -6 3 3 -3 -20 -13 3 -7 -1 -14 -13 -2

GFSMW_prec_radar_102.txt.gz
Reflectivity
-20 -20 -20 -20 -20 -20 -20 -20 -20 -20 -20 -20 -20 -20 -20 -20 -20 -20 -20 -20 -20 -20 -20 -20 -20 -20 -9 -11 1 11 9 7 15 16 18 -20 16 11 -20 -5 28 4 14
2 -20 -20 -20 4 11 -8 -20 -20 -19 -16 -1 -7 -18 -20 -20 -20 -20 -20 -20 -20 -20 -20 -20 -20 -20 9 5 6 13 12 11 14 17 -7 9 -20 -7 -17 -20 -13 -13 29
10 0 -15 -9 -4 -6 -5 -20 -11 -12 1 -3 1 -9 -14 -7 -20 -20 -8 -20 -15 1 -0 -4 -1 -2 11 17 3 17 4 9 2 24 -8 13 -3 -20 -20 -20 -20 15 30
-19 -12 -20 -16 4 1 8 14 20 9 -11 25 -20 -19 -10 -7 -9 -20 -20 -3 -9 -10 0 5 6 8 11 17 6 1 -11 9 12 15 9 2 -20 -18 -20 -20 -19 17 -16
-1 1 -15 -3 0 16 9 11 -10 23 22 23 -20 -13 7 -18 3 7 -19 -6 -20 -19 15 15 14 14 13 21 -8 -5 23 19 31 15 -4 -20 4 23 -11 10 17 -7 12
0 -10 -9 -20 -11 -20 -20 10 -20 -11 18 19 -20 -20 -16 5 -16 4 3 -7 -6 -19 8 5 7 9 9 18 -16 5 12 -8 -0 19 20 14 27 23 22 27 23 31 30
-5 -2 -3 1 -9 -20 -20 -20 -20 -11 -9 -20 -20 -18 14 7 5 11 11 -19 -5 18 -1 3 11 20 18 12 7 11 12 -3 17 14 22 21 31 27 23 26 21 33 27
-9 16 18 16 28 7 -19 -20 -20 -20 -20 -20 13 -4 32 38 38 25 36 19 -3 23 12 -5 18 34 25 31 17 29 31 31 24 13 2 22 25 19 21 27 31 32 29
5 11 21 28 30 22 25 15 1 17 15 15 11 28 25 17 28 15 21 -10 -12 -2 12 24 19 29 28 29 27 29 33 29 27 28 17 16 10 8 16 22 26 29 25
14 21 17 29 19 29 29 29 31 24 27 24 10 2 24 23 16 -3 -5 8 -12 -20 -20 18 30 31 25 28 27 30 29 28 28 28 28 19 23 22 24 27 30 31 33
13 21 21 12 -1 23 12 21 16 17 17 18 17 16 15 11 12 10 12 14 4 -8 -16 10 9 17 21 29 28 26 26 25 29 28 31 31 32 31 31 30 30 31 30
-17 -6 12 6 14 15 14 12 14 8 5 1 2 5 -4 -8 -9 -0 -18 -20 -19 8 6 8 -3 -3 15 9 9 1 -6 -12 7 23 26 29 29 30 33 31 37 37 36
9 -20 -20 -20 -20 -20 -20 -20 -20 -20 -20 -20 -20 -20 -20 -20 -20 -20 -20 -20 -20 -20 -18 -5 -19 9 -16 -13 -20 -20 -20 -20 -20 -20 -7 7 21 19 9 17 26 29 30
-20 -20 -20 -20 -20 -20 -20 -20 -20 -20 -20 -20 -20 -20 -20 -20 -20 -20 -20 -20 -20 -20 -20 -20 -20 -20 -20 -20 -20 -20 -20 -20 -20 -20 -20 -20 -20 -20 -20 -20 -8 -12 -18
-20 -20 -20 -20 -20 -20 -20 -20 -20 -20 -20 -20 -20 -20 -20 -20 -20 -20 -20 -20 -20 -20 -20 -20 -20 -20 -20 -20 -20 -20 -20 -20 -20 -20 -20 -20 -20 -20 -20 -20 -20 -20 -13
-20 -20 -20 -20 -20 -20 -20 -20 -20 -20 -20 -20 -20 -20 -20 -20 -20 -20 -20 -20 -20 -20 -20 -20 -20 -20 -20 -20 -20 -20 -20 -20 -20 -20 -20 -20 -20 -20 -20 -20 -20 -20 -20
-20 -20 -20 -20 -20 -20 -20 -20 -20 -20 -20 -20 -20 -20 -20 -20 -20 -20 -20 -20 -20 -20 -20 -20 -20 -20 -20 -20 -20 -20 -20 -20 -20 -20 -20 -20 -20 -20 -20 -20 -20 -9 1
-20 -20 -20 -20 -20 -20 -20 -20 -20 -20 -20 -20 -20 -20 -20 -20 -20 -20 -20 -20 -20 -20 -20 -20 -20 -20 -20 -20 -20 -20 -20 -20 -20 -20 -20 -20 -20 -20 -20 -20 -20 -20 -15
-20 -20 -20 -20 -20 -20 -20 -20 -20 -20 -20 -20 -20 -20 -20 -20 -20 -20 -20 -20 -20 -20 -20 -20 -20 -20 -20 -20 -20 -20 -20 -20 -20 -20 -20 -20 -20 -20 -20 -20 -20 -20 -20
-20 -20 -20 -20 -20 -20 -20 -20 -20 -20 -20 -20 -20 -20 -20 -20 -20 -20 -20 -20 -20 -20 -20 -20 -20 -20 -20 -20 -20 -20 -20 -20 -20 -20 -20 -20 -20 -20 -20 -20 -20 -20 -20
-20 -20 -20 -20 -20 -20 -20 -20 -20 -20 -20 -20 -20 -20 -20 -20 -20 -20 -20 -20 -20 -20 -20 -20 -20 -20 -20 -20 -20 -20 -20 -20 -20 -20 -20 -20 -20 -20 -20 -20 -20 -20 -20
-20 -20 -10 -20 -20 -20 -20 -20 -20 -20 -20 -20 -20 -20 -20 -20 -20 -20 -20 -20 -20 -20 -20 -20 -20 -20 -20 -20 -20 -20 -20 -20 -20 -20 -20 -20 -20 -20 -20 -20 -20 -20 -20
-5 -14 -19 -20 -20 -20 -20 -20 -20 -20 -20 -20 -20 -20 -20 -20 -20 -20 -20 -20 -20 -20 -20 -20 -20 -20 -20 -20 -20 -20 -20 -20 -2 -6 -17 1 -3 -20 -20 -20 -20 -20 -7
-20 -20 -20 -20 -20 -20 -20 -20 -20 -20 -20 -20 -20 -20 -20 -20 -20 -20 -20 -20 -20 -20 -20 -20 -20 -20 -20 -20 -20 -15 1 11 10 7 8 7 10 10 8 -20 -20 -20 -11
-20 -20 -20 -20 -20 -20 -20 -20 -20 -20 -20 -20 -20 -20 -20 -20 -20 -20 -20 -20 -20 -20 -14 -16 -4 1 1 -3 3 11 8 9 7 8 11 12 10 6 1 -11 -20 -20 -11
-20 -20 -20 -20 -20 -20 -20 -20 -20 -20 -20 -20 -20 -20 -20 -20 -20 -20 -20 -20 -20 -20 -16 -4 -0 -17 2 4 8 12 10 8 8 11 11 11 12 9 8 5 2 -5 -5

GFSMW_prec_radar_108.txt.gz
Reflectivity
-20 -20 -20 -20 -20 -20 -20 -20 -20 -20 -20 -20 -20 -20 -20 -20 -20 26 26 34 -20 -20 -20 -20 -20 -20 -20 -20 -20 -20 -20 -20 -20 -19 -3 -15 7 -20 -20 -20 -18 10 1
-20 -20 -20 -20 -20 -20 -20 -20 -20 -20 -20 -20 -20 -20 -20 -7 -20 10 16 -12 -20 -20 -20 -20 -20 -20 -20 -20 -20 -20 -20 -20 -20 -1 9 -2 2 3 -7 -12 -11 -20 -20
-20 -20 -20 -20 -20 -20 -20 -20 -16 -14 -20 -20 -20 -6 -7 -20 27 28 29 29 7 -20 -20 -20 -20 -20 -20 -20 -20 6 -5 1 -20 -5 17 17 -5 -20 -20 -20 -20 -20 -20
-20 -6 -20 -20 -20 -20 -20 -20 -9 -17 -20 -15 -20 -17 15 29 5 -1 27 30 17 -10 -20 -20 -20 -20 -20 -20 12 16 12 23 -16 -4 21 20 -15 12 5 -11 -20 -20 -20
-20 -20 -20 -20 -20 -20 -20 -20 -12 -2 14 16 -4 5 -2 28 27 28 27 12 -7 -17 -20 -20 -20 -20 -20 -20 -20 -20 19 11 18 19 20 21 -15 19 20 4 -20 13 -12
-20 -20 -20 -20 -20 -20 -20 -1 -15 11 -16 -9 10 5 17 19 20 -5 21 -9 -20 -20 -20 -20 -20 -20 -20 -20 -3 -11 7 23 2 17 20 14 24 17 17 21 14 12 0
-20 -1 5 -20 -19 -20 -20 -20 -20 5 5 -13 21 -5 4 -8 -18 18 24 -20 -20 -19 -13 -20 -20 -20 -20 -20 25 10 21 26 22 22 18 10 6 8 18 13 12 32 20
3 -17 11 -8 4 -20 -20 0 12 2 9 12 -20 -20 -20 -20 -5 -20 -20 -20 -20 -20 -19 -20 -3 16 -17 -18 33 9 10 18 25 21 33 29 27 28 24 26 24 30 35
-20 -20 -20 -1 -20 -12 7 9 11 9 6 6 -18 -20 -20 -20 -20 -19 -19 -1 1 24 25 27 19 2 -20 -20 8 23 -12 32 24 31 31 25 28 14 30 31 36 29 27
-20 -14 -20 -20 -20 -20 -20 -20 -20 -20 -17 -20 -1 -6 8 -13 14 5 3 16 25 -2 -16 -20 -16 -18 -2 -15 -20 3 15 34 35 35 31 39 28 19 28 27 25 30 28
-20 -11 -20 -20 -20 -20 -20 -20 -19 -19 -17 -20 -20 -20 -20 -13 -4 2 2 8 -1 -7 -5 1 4 -2 -13 -15 -4 -12 7 27 29 34 35 35 35 25 24 32 33 32 30
-20 -20 -20 -20 -20 -20 -20 -20 -20 -20 -20 -20 -20 -20 -20 -20 -20 -20 -20 -20 -20 -20 -20 -13 -18 -20 -20 -13 -3 4 0 11 6 26 25 18 21 21 28 29 30 27 33
-20 -20 -20 -20 -20 -20 -20 -20 -20 -20 -20 -20 -20 -20 -20 -20 -20 -20 -20 -20 -20 -20 -20 -20 -20 -20 -20 -19 6 -13 -3 3 4 -8 5 -6 4 4 1 0 0 18 29
-20 -20 -20 -20 -20 -20 -20 -20 -20 -20 -20 -20 -20 -20 -20 -20 -20 -20 -20 -20 -20 -20 -20 -20 -20 -20 -20 -20 -20 -20 -20 -20 -15 -20 -16 -17 -20 -19 -20 -20 -20 -20 -20
-20 -20 -20 -20 -20 -20 -20 -20 -20 -20 -20 -20 -20 -20 -20 -20 -20 -20 -20 -20 -20 -20 -20 -20 -20 -20 -20 -20 -20 -20 -20 -20 -20 -20 -20 -20 -19 -20 -20 -20 -20 -20 -20
-20 -20 -20 -20 -20 -20 -20 -20 -20 -20 -20 -20 -20 -20 -20 -20 -20 -20 -20 -20 -20 -20 -20 -20 -20 -20 -20 -20 -20 -20 -20 -20 -20 -20 -20 -20 -20 -20 -20 -20 -20 -20 -20
-20 -20 -20 -20 -20 -20 -20 -20 -20 -20 -20 -20 -20 -20 -20 -20 -20 -20 -20 -20 -20 -20 -20 -20 -20 -20 -20 -20 -20 -20 -20 -20 -20 -20 -20 -20 -20 -20 -20 -20 -20 -20 -20
-20 -20 -20 -20 -20 -20 -20 -20 -20 -20 -20 -20 -20 -20 -20 -20 -20 -20 -20 -20 -20 -20 -20 -20 -20 -20 -20 -20 -20 -20 -20 -20 -20 -20 -20 -20 -20 -20 -20 -20 -20 -20 -20
-20 -20 -20 -20 -20 -20 -20 -20 -20 -20 -20 -20 -20 -20 -20 -20 -20 -20 -20 -20 -20 -20 -20 -20 -20 -20 -20 -20 -20 -20 -20 -20 -20 -20 -20 -20 -20 -20 -20 -20 -20 -20 -20
-20 -20 -20 -20 -20 -20 -20 -20 -20 -20 -20 -20 -20 -20 -20 -20 -20 -20 -20 -20 -20 -20 -20 -20 -20 -20 -20 -20 -20 -20 -20 -20 -20 -20 -20 -20 -20 -20 -20 -20 -20 -5 -20
-20 -20 -20 -20 -20 -20 -20 -20 -20 -20 -20 -20 -20 -20 -20 -20 -20 -20 -20 -20 -20 -20 -20 -20 -20 -20 -20 -20 -20 -20 -20 -20 -13 -20 -20 -20 -20 -12 0 6 4 -2 5
-20 -20 -20 -20 -20 -20 -20 -20 -20 -20 -20 -20 -20 -20 -20 -20 -20 -20 -20 -20 -20 -20 -20 -20 -20 -20 -20 -20 -20 -20 -20 -13 -18 -20 -20 -20 -10 -13 -0 4 9 1 7
-20 -20 -20 -20 -20 -20 -20 -20 -20 -20 -20 -20 -20 -20 -20 -20 -20 -20 -20 -20 -20 -20 -20 -20 -20 -20 -20 -20 -20 -20 -18 0 -10 1 3 6 3 -9 -8 -19 8 10 -6
-20 -20 -20 -20 -20 -20 -20 -20 -20 -20 -20 -20 -20 -20 -20 -20 -20 -20 -20 -20 -20 -20 -20 -20 -20 -20 -20 -20 -20 -20 -20 -20 -17 -20 -20 10 7 -20 -20 -20 -20 -20 5
-20 -20 -20 -20 -20 -20 -20 -20 -20 -20 -20 -20 -20 -20 -20 -20 -20 -20 -20 -20 -20 -20 -20 -20 -20 -14 -20 -20 1 -1 -4 -12 -11 10 -10 -20 -20 -20 -20 -20 -7 9 13
-20 -20 -20 -20 -20 -20 -20 -20 -20 -20 -20 -20 -20 -20 -20 -20 -20 -20 -20 -20 -20 -20 -20 -20 -20 -10 -1 2 8 7 5 4 9 5 7 -19 -20 -2 3 -17 -20 -20 -20